Boston, MA

8:25 AM EDT on April 29, 2017 (GMT -0400)
Logan International

Weather History for KBOS - October, 2012

Change the Weather History Date:

Wednesday, October 24, 2012

  Actual Average Record
Temperature  
Mean Temperature 51 °F 51 °F  
Max Temperature 55 °F 59 °F 80 °F (1900)
Min Temperature 47 °F 44 °F 30 °F (1969)
Degree Days  
Heating Degree Days 14 14  
Month to date heating degree days 194 246  
Since 1 July heating degree days 266 343  
Cooling Degree Days 0 0  
Month to date cooling degree days 6 6  
Year to date cooling degree days 905 746  
Moisture  
Dew Point 38 °F    
Average Humidity 64    
Maximum Humidity 77    
Minimum Humidity 51    
Precipitation  
Precipitation 0.00 in 0.13 in 2.13 in (1883)
Month to date precipitation 0.97 3.06  
Year to date precipitation 28.14 35.12  
Snow  
Snow 0.00 in 0.00 in T in (1960)
Month to date snowfall 0.0 0.0  
Since 1 July snowfall 0.0 0.0  
Since 1 September snowfall 0.0 0.0  
Snow Depth 0.00 in    
Sea Level Pressure  
Sea Level Pressure 30.18 in    
Wind  
Wind Speed 5 mph (East)    
Max Wind Speed 14 mph    
Max Gust Speed 17 mph    
Visibility 10 miles    
Events      
T = Trace of Precipitation, MM = Missing Value Source: NWS Daily Summary

Daily Weather History Graph

Daily Weather History Graph

Search for Another Location

Airport or City:

Trip Planner

Search our weather history database for the weather conditions in past years. The results will help you decide how hot, cold, wet, or windy it might be!

Date:

Astronomy

Oct. 24, 2012 Rise Set
Actual Time 7:08 AM EDT 5:47 PM EDT
Civil Twilight 6:39 AM EDT 6:16 PM EDT
Nautical Twilight 6:06 AM EDT 6:49 PM EDT
Astronomical Twilight 5:33 AM EDT 7:21 PM EDT
Moon 3:06 PM EDT (10/24) 1:54 AM EDT (10/24)
Length of Visible Light 11h 36m
Length of Day
10h 39m
Waxing Gibbous, 76% of the Moon is Illuminated
Oct 24
Waxing Gibbous
Oct 29
Full
Nov 6
Last Quarter
Nov 13
New
Nov 20
First Quarter

Hourly Weather History & Observations

Time (EDT) Temp. Dew Point Humidity Pressure Visibility Wind Dir Wind Speed Gust Speed Precip Events Conditions
12:54 AM 55.0 °F 37.9 °F 53% 30.14 in 10.0 mi North 8.1 mph - N/A   Overcast
1:54 AM 53.1 °F 37.9 °F 57% 30.15 in 10.0 mi NNE 9.2 mph - N/A   Overcast
2:54 AM 51.1 °F 36.0 °F 56% 30.14 in 10.0 mi NNE 11.5 mph - N/A   Overcast
3:54 AM 50.0 °F 36.0 °F 59% 30.14 in 10.0 mi North 6.9 mph - N/A   Mostly Cloudy
4:54 AM 48.9 °F 36.0 °F 61% 30.17 in 10.0 mi NNW 5.8 mph - N/A   Mostly Cloudy
5:54 AM 48.0 °F 35.1 °F 61% 30.17 in 10.0 mi North 5.8 mph - N/A   Mostly Cloudy
6:54 AM 46.9 °F 35.1 °F 63% 30.19 in 10.0 mi North 4.6 mph - N/A   Scattered Clouds
7:54 AM 48.0 °F 36.0 °F 63% 30.19 in 10.0 mi North 5.8 mph - N/A   Scattered Clouds
8:54 AM 50.0 °F 37.0 °F 61% 30.20 in 10.0 mi North 6.9 mph - N/A   Mostly Cloudy
9:54 AM 52.0 °F 37.9 °F 59% 30.20 in 10.0 mi ENE 6.9 mph - N/A   Mostly Cloudy
10:54 AM 53.1 °F 39.0 °F 59% 30.19 in 10.0 mi ENE 8.1 mph - N/A   Mostly Cloudy
11:54 AM 52.0 °F 37.9 °F 59% 30.19 in 10.0 mi East 6.9 mph - N/A   Mostly Cloudy
12:54 PM 52.0 °F 37.9 °F 59% 30.18 in 10.0 mi ESE 3.5 mph - N/A   Mostly Cloudy
1:54 PM 52.0 °F 39.0 °F 61% 30.17 in 10.0 mi SSE 3.5 mph - N/A   Mostly Cloudy
2:54 PM 52.0 °F 37.9 °F 59% 30.15 in 10.0 mi SSE 4.6 mph - N/A   Mostly Cloudy
3:54 PM 53.1 °F 37.9 °F 57% 30.15 in 10.0 mi SE 4.6 mph - N/A   Mostly Cloudy
4:54 PM 52.0 °F 39.0 °F 61% 30.16 in 10.0 mi SE 4.6 mph - N/A   Mostly Cloudy
5:54 PM 52.0 °F 37.0 °F 57% 30.17 in 9.0 mi SSE 3.5 mph - N/A   Mostly Cloudy
6:54 PM 51.1 °F 39.0 °F 63% 30.19 in 10.0 mi SE 3.5 mph - N/A   Scattered Clouds
7:54 PM 51.1 °F 39.9 °F 66% 30.19 in 10.0 mi SSE 3.5 mph - N/A   Partly Cloudy
8:54 PM 52.0 °F 43.0 °F 71% 30.21 in 10.0 mi SE 4.6 mph - N/A   Scattered Clouds
9:54 PM 51.1 °F 42.1 °F 71% 30.22 in 10.0 mi South 4.6 mph - N/A   Mostly Cloudy
10:54 PM 51.1 °F 42.1 °F 71% 30.22 in 10.0 mi Calm Calm - N/A   Mostly Cloudy
11:54 PM 48.9 °F 41.0 °F 74% 30.22 in 10.0 mi SSW 3.5 mph - N/A   Mostly Cloudy